TimePST,TemperatureF,Dew PointF,Humidity,Sea Level PressureIn,VisibilityMPH,Wind Direction,Wind SpeedMPH,Gust SpeedMPH,PrecipitationIn,Events,Conditions,WindDirDegrees,DateUTC
12:53 AM,61.0,34.0,36,30.16,10.0,Calm,Calm,-,N/A,,Clear,0,2012-11-06 08:53:00
1:53 AM,60.1,35.1,39,30.16,10.0,NW,9.2,-,N/A,,Clear,320,2012-11-06 09:53:00
2:53 AM,64.0,33.1,31,30.15,10.0,NNW,6.9,-,N/A,,Clear,340,2012-11-06 10:53:00
3:53 AM,60.1,34.0,38,30.16,10.0,WNW,4.6,-,N/A,,Clear,290,2012-11-06 11:53:00
4:53 AM,57.9,34.0,41,30.17,10.0,NW,5.8,-,N/A,,Clear,310,2012-11-06 12:53:00
5:53 AM,57.0,35.1,44,30.19,10.0,West,4.6,-,N/A,,Clear,280,2012-11-06 13:53:00
6:53 AM,60.1,35.1,39,30.21,10.0,West,3.5,-,N/A,,Clear,260,2012-11-06 14:53:00
7:53 AM,64.9,35.1,33,30.22,10.0,NW,4.6,-,N/A,,Clear,320,2012-11-06 15:53:00
8:53 AM,70.0,33.1,26,30.21,10.0,NNW,4.6,-,N/A,,Clear,330,2012-11-06 16:53:00
9:53 AM,73.0,34.0,24,30.20,10.0,Calm,Calm,-,N/A,,Clear,0,2012-11-06 17:53:00
10:53 AM,75.0,33.1,22,30.18,10.0,Calm,Calm,-,N/A,,Clear,0,2012-11-06 18:53:00
11:53 AM,78.1,30.9,18,30.14,10.0,Calm,Calm,-,N/A,,Clear,0,2012-11-06 19:53:00
12:53 PM,79.0,30.0,17,30.11,10.0,Calm,Calm,-,N/A,,Clear,0,2012-11-06 20:53:00
1:53 PM,81.0,28.9,15,30.09,10.0,Calm,Calm,-,N/A,,Clear,0,2012-11-06 21:53:00
2:53 PM,80.1,28.0,15,30.08,10.0,South,4.6,-,N/A,,Clear,180,2012-11-06 22:53:00
3:53 PM,80.1,28.0,15,30.07,10.0,Calm,Calm,-,N/A,,Clear,0,2012-11-06 23:53:00
4:53 PM,78.1,28.9,17,30.06,10.0,Calm,Calm,-,N/A,,Clear,0,2012-11-07 00:53:00
5:53 PM,71.1,33.1,25,30.08,10.0,NW,6.9,-,N/A,,Clear,310,2012-11-07 01:53:00
6:53 PM,66.9,37.0,33,30.08,10.0,WNW,6.9,-,N/A,,Clear,300,2012-11-07 02:53:00
7:53 PM,66.0,36.0,33,30.08,10.0,WNW,4.6,-,N/A,,Clear,300,2012-11-07 03:53:00
8:53 PM,63.0,37.0,38,30.08,10.0,NNW,3.5,-,N/A,,Clear,340,2012-11-07 04:53:00
9:53 PM,62.1,36.0,38,30.09,10.0,North,4.6,-,N/A,,Clear,10,2012-11-07 05:53:00
10:53 PM,59.0,36.0,42,30.09,10.0,West,3.5,-,N/A,,Clear,280,2012-11-07 06:53:00
11:53 PM,60.1,36.0,41,30.08,10.0,WNW,3.5,-,N/A,,Clear,300,2012-11-07 07:53:00